Regional Weather Roundup
Issued by NWS

Home | Current Version | Previous Version | Text Only | Print | Product List | Glossary On
Versions: 1 2 3 4 5 6 7 8 9 10 11 12 13 14 15 16 17 18 19 20 21 22 23 24 25 26 27 28 29 30 31 32 33 34 35 36 37 38 39 40 41 42 43 44 45 46 47 48 49 50
000
ASUS43 KIND 021809
RWRIN

WEATHER ROUNDUP FOR INDIANA
NATIONAL WEATHER SERVICE INDIANAPOLIS IN
200 PM EDT THU OCT 02 2014

NOTE: "FAIR" INDICATES FEW OR NO CLOUDS BELOW 12,000 FEET WITH NO
SIGNIFICANT WEATHER AND/OR OBSTRUCTIONS TO VISIBILITY.

* - STATION DOES NOT REPORT WEATHER SUCH AS PRECIPITATION OR FOG.

+ - STATION NOT QUALITY CONTROLLED BY THE NATIONAL WEATHER SERVICE.
    USE DATA WITH CAUTION...ESPECIALLY DEWPOINT AND RELATIVE
    HUMIDITY OBSERVATIONS.

INZ001>003-010>013-019-020-021900-
NORTHWEST INDIANA

CITY           SKY/WX    TMP DP  RH WIND       PRES   REMARKS
GARY /AIRPORT/ PTSUNNY   73  64  73 S8        29.86F
KNOX *+        PTSUNNY   76  63  64 SW6       29.85F
LA PORTE +     CLOUDY    74  66  76 S6        29.87F
6HR MIN TEMP:  62; 6HR MAX TEMP:  74;

MICHIGAN CITY+ CLOUDY    70  61  73 S5        29.87F
MONTICELLO +   PTSUNNY   77  66  68 S9        29.86F
RENSSELAER +   PTSUNNY   77  68  73 SW7       29.86F
VALPARAISO     PTSUNNY   73  63  70 SW13      29.87F
6HR MIN TEMP:  61; 6HR MAX TEMP:  74; 6HR PCP: TRACE;


$$

LMZ046-743>745-021900-
SOUTHERN LAKE MICHIGAN

STATION/POSITION TIME  TEMP WIND        PRES
                       AIR  DIR/SP/G
                 (UTC) (F)  (DEG/KT/KT) (MB)
MICHIGAN CITY    1800   69  180/  9/ 12   N/A

$$

INZ004-005-014>016-021>024-021900-
NORTH CENTRAL INDIANA

CITY           SKY/WX    TMP DP  RH WIND       PRES   REMARKS
ELKHART        PTSUNNY   70  61  73 SE6       29.89
LOGANSPORT +   PTSUNNY   73  63  68 SW12      29.88F
PERU/GRISSOM   PTSUNNY   75  67  75 SW10      29.88F
6HR MIN TEMP:  62; 6HR MAX TEMP:  76; 6HR PCP:  0.02;

ROCHESTER +    MOSUNNY   79  64  61 SW12G17   29.88F
SOUTH BEND     PTSUNNY   73  63  68 S10       29.88F
WARSAW +       PTSUNNY   72  61  68 S5        29.90F

$$

INZ006>009-017-018-025>027-021900-
NORTHEAST INDIANA

CITY           SKY/WX    TMP DP  RH WIND       PRES   REMARKS
ANGOLA *+      CLOUDY    63  57  82 S6        29.93F
AUBURN +       LGT RAIN  64  59  82 E9        29.92F
FORT WAYNE     CLOUDY    72  60  66 SE7       29.91F
6HR MIN TEMP:  56; 6HR MAX TEMP:  72; 6HR PCP:  0.01;

HUNTINGTON +   CLOUDY    76  63  63 S10G17    29.90F
6HR MIN TEMP:  57; 6HR MAX TEMP:  76;


$$

INZ028-029-035-036-043>045-051>053-021900-
WEST CENTRAL INDIANA

CITY           SKY/WX    TMP DP  RH WIND       PRES   REMARKS
GREENCASTLE +  PTSUNNY   73  64  73 S9        29.91S
LAFAYETTE      PTSUNNY   77  65  66 SW9G17    29.86F
6HR MIN TEMP:  62; 6HR MAX TEMP:  77; 6HR PCP:  0.17;

TERRE HAUTE    PTSUNNY   77  64  64 S14       29.89F
6HR MIN TEMP:  63; 6HR MAX TEMP:  78; 6HR PCP:  0.51;


$$

INZ030>032-037>040-046>048-054>057-064-065-021900-
CENTRAL INDIANA

CITY           SKY/WX    TMP DP  RH WIND       PRES   REMARKS
CP ATTERBURY + SUNNY     81  63  54 S12       29.92F
COLUMBUS       SUNNY     82  59  44 SW14      29.93F
FRANKFORT +    CLOUDY    73  63  68 S7G16     29.90F
GREENWOOD *+   MOSUNNY   82  61  47 S16G22    29.92
INDIANAPOLIS   PTSUNNY   77  64  64 S15       29.90F
6HR MIN TEMP:  61; 6HR MAX TEMP:  77; 6HR PCP:  0.14;

-EAGLE CREEK   CLOUDY    77  65  66 SW13      29.89F
6HR MIN TEMP:  61; 6HR MAX TEMP:  77; 6HR PCP:  0.28;

KOKOMO *+      PTSUNNY   77  63  61 SW15      29.89F
MARION +       PTSUNNY   78  60  54 SW10G23   29.91F
MT COMFORT *+  PTSUNNY   81  52  36 S15G22    29.90F
SHELBYVILLE    MOSUNNY   84  62  47 S15       29.91F
6HR MIN TEMP:  64; 6HR MAX TEMP:  84; 6HR PCP: TRACE;

ZIONSVILLE +   CLOUDY    73  63  71 S9        29.91F
6HR MIN TEMP:  61; 6HR MAX TEMP:  73; 6HR PCP:  0.16;


$$

INZ033-034-041-042-049-050-058-059-021900-
EAST CENTRAL INDIANA

CITY           SKY/WX    TMP DP  RH WIND       PRES   REMARKS
MUNCIE         PTSUNNY   80  59  48 S13G21    29.92F
6HR MIN TEMP:  62; 6HR MAX TEMP:  81;


$$

INZ060-061-067>069-081>083-085>088-021900-
SOUTHWEST INDIANA

CITY           SKY/WX    TMP DP  RH WIND       PRES   REMARKS
EVANSVILLE     PTSUNNY   86  65  49 S12       29.91F
6HR MIN TEMP:  67; 6HR MAX TEMP:  86;

WASHINGTON +   MOSUNNY   85  67  54 S13G20    29.89F
6HR MIN TEMP:  66; 6HR MAX TEMP:  85;


$$

INZ062-063-066-070>080-084-089>092-021900-
SOUTH CENTRAL AND SOUTHEAST INDIANA

CITY           SKY/WX    TMP DP  RH WIND       PRES   REMARKS
BLOOMINGTON    SUNNY     79  65  62 S12G18    29.92F
6HR MIN TEMP:  63; 6HR MAX TEMP:  81; 6HR PCP:  0.06;

SEYMOUR +      MOSUNNY   86  63  45 S14       29.93

$$



USA.gov is the U.S. government's official web portal to all federal, state and local government web resources and services.